Weather History for West Palm Beach, FL

Change the Weather History Date:

Friday, March 21, 2014

  Actual Average Record
Temperature  
Mean Temperature 73 °F 71 °F  
Max Temperature 83 °F 79 °F 92 °F (2003)
Min Temperature 63 °F 63 °F 41 °F (1971)
Degree Days  
Heating Degree Days 0 1  
Month to date heating degree days 2 21  
Since 1 July heating degree days 117 226  
Cooling Degree Days 8 6  
Month to date cooling degree days 136 124  
Year to date cooling degree days 482 359  
Growing Degree Days 22 (Base 50)    
Moisture  
Dew Point 65 °F    
Average Humidity 78    
Maximum Humidity 93    
Minimum Humidity 62    
Precipitation  
Precipitation 0.00 in 0.15 in 5.58 in (1993)
Month to date precipitation 0.66 3.09  
Year to date precipitation 12.14 9.04  
Snow  
Snow 0.00 in - - ()
Month to date snowfall 0.0  
Since 1 July snowfall 0.0  
Snow Depth 0.00 in    
Sea Level Pressure  
Sea Level Pressure 30.02 in    
Wind  
Wind Speed 11 mph (ESE)    
Max Wind Speed 21 mph    
Max Gust Speed 27 mph    
Visibility 10 miles    
Events      
T = Trace of Precipitation, MM = Missing Value Source: NWS Daily Summary

Daily Weather History Graph

Daily Weather History Graph

Search for Another Location

Airport:

Trip Planner

Search our weather history database for the weather conditions in past years. The results will help you decide how hot, cold, wet, or windy it might be!

Date:

Astronomy

Mar. 21, 2014 Rise Set
Actual Time 7:23 AM EDT 7:32 PM EDT
Civil Twilight 7:00 AM EDT 7:55 PM EDT
Nautical Twilight 6:33 AM EDT 8:22 PM EDT
Astronomical Twilight 6:06 AM EDT 8:49 PM EDT
Moon No Moon Rise 10:38 AM EDT (3/21)
Length of Visible Light 12h 55m
Length of Day
12h 08m
Waning Gibbous, 75% of the Moon is Illuminated
Mar 21
Waning Gibbous
Mar 23
Last Quarter
Mar 30
New
Apr 7
First Quarter
Apr 15
Full

Hourly Weather History & Observations

Time (EDT) Temp. Heat Index Dew Point Humidity Pressure Visibility Wind Dir Wind Speed Gust Speed Precip Events Conditions
12:53 AM 73.0 °F - 64.9 °F 76% 30.00 in 10.0 mi ESE 8.1 mph - N/A   Partly Cloudy
1:53 AM 73.0 °F - 66.0 °F 79% 29.99 in 10.0 mi SSE 6.9 mph - N/A   Partly Cloudy
2:53 AM 71.1 °F - 64.0 °F 78% 29.99 in 10.0 mi Calm Calm - N/A   Partly Cloudy
3:53 AM 66.9 °F - 63.0 °F 87% 29.98 in 10.0 mi SSW 3.5 mph - N/A   Partly Cloudy
4:53 AM 66.9 °F - 63.0 °F 87% 29.96 in 10.0 mi Calm Calm - N/A   Partly Cloudy
5:53 AM 63.0 °F - 61.0 °F 93% 29.98 in 10.0 mi NNW 3.5 mph - N/A   Partly Cloudy
6:53 AM 64.0 °F - 62.1 °F 93% 30.00 in 10.0 mi Calm Calm - N/A   Partly Cloudy
7:53 AM 64.9 °F - 62.1 °F 90% 30.01 in 10.0 mi Calm Calm - N/A   Partly Cloudy
8:53 AM 75.9 °F - 68.0 °F 76% 30.01 in 10.0 mi ESE 10.4 mph - N/A   Scattered Clouds
9:53 AM 79.0 °F - 66.0 °F 64% 30.03 in 10.0 mi ESE 12.7 mph - N/A   Scattered Clouds
10:53 AM 80.1 °F 82.3 °F 66.9 °F 64% 30.06 in 10.0 mi ESE 15.0 mph - N/A   Scattered Clouds
11:40 AM 81.0 °F 83.3 °F 66.9 °F 62% 30.06 in 10.0 mi ESE 13.8 mph - N/A   Mostly Cloudy
11:53 AM 80.1 °F 82.3 °F 66.9 °F 64% 30.06 in 10.0 mi ESE 16.1 mph 19.6 mph N/A   Mostly Cloudy
12:53 PM 81.0 °F 83.3 °F 66.9 °F 62% 30.06 in 10.0 mi SE 15.0 mph - N/A   Mostly Cloudy
1:53 PM 81.0 °F 83.3 °F 66.9 °F 62% 30.04 in 10.0 mi ESE 17.3 mph 24.2 mph N/A   Mostly Cloudy
2:14 PM 81.0 °F 83.3 °F 66.9 °F 62% 30.04 in 10.0 mi ESE 15.0 mph 23.0 mph N/A   Mostly Cloudy
2:53 PM 81.0 °F 83.3 °F 66.9 °F 62% 30.03 in 10.0 mi ESE 19.6 mph - N/A   Scattered Clouds
3:53 PM 81.0 °F 83.3 °F 66.9 °F 62% 30.02 in 10.0 mi ESE 16.1 mph - N/A   Scattered Clouds
4:53 PM 79.0 °F - 66.0 °F 64% 30.02 in 10.0 mi ESE 16.1 mph - N/A   Mostly Cloudy
5:53 PM 77.0 °F - 68.0 °F 74% 30.03 in 10.0 mi East 17.3 mph - N/A   Mostly Cloudy
6:26 PM 75.9 °F - 66.9 °F 74% 30.03 in 10.0 mi East 15.0 mph - N/A   Mostly Cloudy
6:53 PM 75.9 °F - 66.9 °F 74% 30.03 in 10.0 mi East 16.1 mph - N/A   Mostly Cloudy
7:46 PM 75.9 °F - 66.0 °F 71% 30.03 in 10.0 mi ESE 13.8 mph - N/A   Scattered Clouds
7:53 PM 75.9 °F - 64.9 °F 69% 30.04 in 10.0 mi SE 13.8 mph - N/A   Scattered Clouds
8:53 PM 75.9 °F - 64.9 °F 69% 30.04 in 10.0 mi SE 13.8 mph - N/A   Scattered Clouds
9:53 PM 75.0 °F - 64.9 °F 71% 30.06 in 10.0 mi ESE 11.5 mph - N/A   Scattered Clouds
10:53 PM 75.0 °F - 64.9 °F 71% 30.06 in 10.0 mi ESE 11.5 mph - N/A   Partly Cloudy
11:53 PM 75.9 °F - 64.9 °F 69% 30.06 in 10.0 mi SE 12.7 mph - N/A   Mostly Cloudy